| time (UTC) | temp F | wind direction | speed MPH | gust MPH | rain 1hr in | rain 24hr in | rain mn in | humidity % | barometer mb |
| 20260508060020 | 41 | 221 | 0.0 | 2.0 | 0.00 | 0.00 | 0.00 | 83 | 1003.9 |
| 20260508055504 | 42 | 221 | 0.0 | 1.0 | 0.00 | 0.00 | 0.00 | 82 | 1003.9 |
| 20260508055009 | 42 | 221 | 0.0 | 2.0 | 0.00 | 0.00 | 0.00 | 82 | 1003.9 |
| 20260508054524 | 42 | 221 | 0.0 | 2.0 | 0.00 | 0.00 | 0.00 | 83 | 1003.8 |
| 20260508054005 | 42 | 221 | 0.0 | 2.0 | 0.00 | 0.00 | 0.00 | 82 | 1003.8 |
| 20260508053506 | 43 | 221 | 0.0 | 3.0 | 0.00 | 0.00 | 0.00 | 82 | 1003.8 |
| 20260508053020 | 43 | 242 | 0.0 | 6.0 | 0.00 | 0.00 | 0.00 | 82 | 1003.8 |
| 20260508052511 | 43 | 222 | 2.0 | 6.0 | 0.00 | 0.00 | 0.00 | 82 | 1003.8 |
| 20260508052010 | 43 | 270 | 1.0 | 4.0 | 0.00 | 0.00 | 0.00 | 82 | 1003.8 |
| 20260508051526 | 43 | 261 | 2.0 | 3.0 | 0.00 | 0.00 | 0.00 | 82 | 1003.8 |
| 20260508051008 | 43 | 213 | 0.0 | 2.0 | 0.00 | 0.00 | 0.00 | 82 | 1003.8 |
| 20260508050510 | 43 | 204 | 1.0 | 3.0 | 0.00 | 0.00 | 0.00 | 83 | 1003.7 |
| 20260508050030 | 43 | 242 | 0.0 | 3.0 | 0.00 | 0.00 | 0.00 | 83 | 1003.7 |
| 20260508045510 | 43 | 246 | 1.0 | 2.0 | 0.00 | 0.00 | 0.00 | 83 | 1003.7 |
| 20260508045013 | 43 | 206 | 1.0 | 2.0 | 0.00 | 0.00 | 0.00 | 83 | 1003.7 |
| 20260508044515 | 43 | 201 | 1.0 | 3.0 | 0.00 | 0.00 | 0.00 | 84 | 1003.7 |
| 20260508044007 | 43 | 221 | 1.0 | 3.0 | 0.00 | 0.00 | 0.00 | 84 | 1003.7 |
| 20260508043506 | 43 | 238 | 0.0 | 2.0 | 0.00 | 0.00 | 0.00 | 84 | 1003.7 |
| 20260508043021 | 44 | 238 | 0.0 | 2.0 | 0.00 | 0.00 | 0.00 | 84 | 1003.6 |
| 20260508042506 | 44 | 238 | 1.0 | 2.0 | 0.00 | 0.00 | 0.00 | 85 | 1003.7 |
| 20260508042007 | 44 | 238 | 1.0 | 2.0 | 0.00 | 0.00 | 0.00 | 85 | 1003.7 |
| 20260508041522 | 44 | 229 | 1.0 | 2.0 | 0.00 | 0.00 | 0.00 | 86 | 1003.6 |
| 20260508041008 | 44 | 221 | 1.0 | 2.0 | 0.00 | 0.00 | 0.00 | 86 | 1003.6 |
| 20260508040510 | 44 | 194 | 1.0 | 2.0 | 0.00 | 0.00 | 0.00 | 87 | 1003.6 |
| 20260508040007 | 44 | 247 | 0.0 | 2.0 | 0.00 | 0.00 | 0.00 | 87 | 1003.6 |
| 20260508035505 | 44 | 247 | 1.0 | 2.0 | 0.00 | 0.00 | 0.00 | 87 | 1003.6 |
| 20260508035006 | 45 | 244 | 0.0 | 2.0 | 0.00 | 0.00 | 0.00 | 86 | 1003.6 |
| 20260508034517 | 45 | 244 | 0.0 | 2.0 | 0.00 | 0.00 | 0.00 | 86 | 1003.6 |
| 20260508034005 | 45 | 244 | 1.0 | 3.0 | 0.00 | 0.00 | 0.00 | 86 | 1003.6 |
| 20260508033503 | 45 | 244 | 0.0 | 3.0 | 0.00 | 0.00 | 0.00 | 86 | 1003.6 |
| 20260508033017 | 45 | 232 | 2.0 | 3.0 | 0.00 | 0.00 | 0.00 | 86 | 1003.6 |
| 20260508032508 | 45 | 233 | 2.0 | 3.0 | 0.00 | 0.00 | 0.00 | 86 | 1003.6 |
| 20260508032006 | 45 | 226 | 1.0 | 3.0 | 0.00 | 0.00 | 0.00 | 86 | 1003.6 |
| 20260508031523 | 45 | 227 | 1.0 | 3.0 | 0.00 | 0.00 | 0.00 | 86 | 1003.6 |
| 20260508031007 | 45 | 229 | 2.0 | 3.0 | 0.00 | 0.00 | 0.00 | 86 | 1003.6 |
| 20260508030509 | 45 | 229 | 1.0 | 3.0 | 0.00 | 0.00 | 0.00 | 85 | 1003.6 |
| 20260508030027 | 45 | 243 | 2.0 | 3.0 | 0.00 | 0.00 | 0.00 | 85 | 1003.6 |
| 20260508025512 | 46 | 264 | 1.0 | 3.0 | 0.00 | 0.00 | 0.00 | 84 | 1003.7 |
| 20260508025003 | 46 | 253 | 1.0 | 2.0 | 0.00 | 0.00 | 0.00 | 83 | 1003.6 |
| 20260508024517 | 46 | 221 | 0.0 | 2.0 | 0.00 | 0.00 | 0.00 | 83 | 1003.7 |
| 20260508024004 | 46 | 221 | 0.0 | 2.0 | 0.00 | 0.00 | 0.00 | 82 | 1003.6 |
| 20260508023504 | 46 | 221 | 1.0 | 2.0 | 0.00 | 0.00 | 0.00 | 82 | 1003.6 |
| 20260508023016 | 46 | 229 | 1.0 | 2.0 | 0.00 | 0.00 | 0.00 | 82 | 1003.6 |
| 20260508022503 | 46 | 178 | 0.0 | 3.0 | 0.00 | 0.00 | 0.00 | 81 | 1003.6 |
| 20260508022007 | 46 | 178 | 1.0 | 3.0 | 0.00 | 0.00 | 0.00 | 81 | 1003.5 |
| 20260508021520 | 47 | 196 | 0.0 | 3.0 | 0.00 | 0.00 | 0.00 | 80 | 1003.6 |
| 20260508021008 | 47 | 239 | 1.0 | 3.0 | 0.00 | 0.00 | 0.00 | 79 | 1003.6 |
| 20260508020508 | 47 | 236 | 1.0 | 5.0 | 0.00 | 0.00 | 0.00 | 78 | 1003.6 |
| 20260508020025 | 47 | 227 | 2.0 | 5.0 | 0.00 | 0.00 | 0.00 | 77 | 1003.4 |
| 20260508015512 | 47 | 195 | 2.0 | 6.0 | 0.00 | 0.00 | 0.00 | 76 | 1003.3 |
| 20260508015010 | 47 | 175 | 2.0 | 6.0 | 0.00 | 0.00 | 0.00 | 75 | 1003.4 |
| 20260508014528 | 47 | 164 | 2.0 | 5.0 | 0.00 | 0.00 | 0.00 | 74 | 1003.4 |
| 20260508014010 | 48 | 189 | 1.0 | 3.0 | 0.00 | 0.00 | 0.00 | 72 | 1003.4 |
| 20260508013503 | 48 | 144 | 0.0 | 3.0 | 0.00 | 0.00 | 0.00 | 72 | 1003.4 |
| 20260508013013 | 48 | 198 | 1.0 | 3.0 | 0.00 | 0.00 | 0.00 | 71 | 1003.2 |
| 20260508012506 | 48 | 178 | 1.0 | 5.0 | 0.00 | 0.00 | 0.00 | 70 | 1003.3 |
| 20260508012003 | 48 | 263 | 1.0 | 5.0 | 0.00 | 0.00 | 0.00 | 70 | 1003.2 |
| 20260508011517 | 48 | 221 | 1.0 | 5.0 | 0.00 | 0.00 | 0.00 | 69 | 1003.0 |
| 20260508011007 | 48 | 189 | 2.0 | 4.0 | 0.00 | 0.00 | 0.00 | 68 | 1002.9 |
| 20260508010506 | 48 | 232 | 1.0 | 7.0 | 0.00 | 0.00 | 0.00 | 68 | 1002.9 |
| 20260508010023 | 49 | 211 | 1.0 | 8.0 | 0.00 | 0.00 | 0.00 | 67 | 1002.9 |
| 20260508005507 | 49 | 202 | 3.0 | 8.0 | 0.00 | 0.00 | 0.00 | 67 | 1002.9 |
| 20260508005011 | 49 | 191 | 3.0 | 8.0 | 0.00 | 0.00 | 0.00 | 66 | 1002.8 |
| 20260508004530 | 49 | 198 | 1.0 | 7.0 | 0.00 | 0.00 | 0.00 | 66 | 1002.9 |
| 20260508004011 | 49 | 217 | 2.0 | 7.0 | 0.00 | 0.00 | 0.00 | 66 | 1002.8 |
| 20260508003514 | 49 | 211 | 2.0 | 8.0 | 0.00 | 0.00 | 0.00 | 66 | 1002.7 |
| 20260508003030 | 49 | 142 | 3.0 | 8.0 | 0.00 | 0.00 | 0.00 | 66 | 1002.7 |
| 20260508002505 | 49 | 163 | 2.0 | 7.0 | 0.00 | 0.00 | 0.00 | 66 | 1002.6 |
| 20260508002004 | 49 | 175 | 4.0 | 7.0 | 0.00 | 0.00 | 0.00 | 65 | 1002.6 |
| 20260508001535 | 49 | 198 | 2.0 | 6.0 | 0.00 | 0.00 | 0.00 | 65 | 1002.6 |
| 20260508001009 | 49 | 188 | 3.0 | 6.0 | 0.00 | 0.00 | 0.00 | 65 | 1002.5 |
| 20260508000505 | 49 | 192 | 2.0 | 7.0 | 0.00 | 0.00 | 0.00 | 65 | 1002.5 |
| 20260508000019 | 50 | 198 | 4.0 | 9.0 | 0.00 | 0.00 | 0.00 | 64 | 1002.6 |
| 20260507235507 | 50 | 255 | 6.0 | 9.0 | 0.00 | 0.00 | 0.00 | 64 | 1002.5 |
| 20260507235006 | 50 | 249 | 5.0 | 9.0 | 0.00 | 0.00 | 0.00 | 64 | 1002.4 |
| 20260507234524 | 50 | 226 | 4.0 | 10.0 | 0.00 | 0.00 | 0.00 | 63 | 1002.3 |
| 20260507234007 | 50 | 210 | 5.0 | 10.0 | 0.00 | 0.00 | 0.00 | 63 | 1002.3 |
| 20260507233507 | 50 | 227 | 4.0 | 8.0 | 0.00 | 0.00 | 0.00 | 62 | 1002.3 |
| 20260507233032 | 50 | 201 | 5.0 | 7.0 | 0.00 | 0.00 | 0.00 | 63 | 1002.3 |
| 20260507232511 | 51 | 250 | 3.0 | 9.0 | 0.00 | 0.00 | 0.00 | 62 | 1002.2 |
| 20260507232013 | 51 | 259 | 4.0 | 9.0 | 0.00 | 0.00 | 0.00 | 59 | 1002.2 |
| 20260507231529 | 51 | 231 | 3.0 | 8.0 | 0.00 | 0.00 | 0.00 | 58 | 1002.1 |
| 20260507231006 | 52 | 233 | 4.0 | 8.0 | 0.00 | 0.00 | 0.00 | 56 | 1002.1 |
| 20260507230504 | 52 | 231 | 5.0 | 8.0 | 0.00 | 0.00 | 0.00 | 55 | 1002.0 |
| 20260507230027 | 52 | 246 | 5.0 | 9.0 | 0.00 | 0.00 | 0.00 | 55 | 1002.1 |
| 20260507225505 | 52 | 229 | 4.0 | 9.0 | 0.00 | 0.00 | 0.00 | 57 | 1002.1 |
| 20260507225010 | 52 | 226 | 4.0 | 9.0 | 0.00 | 0.00 | 0.00 | 57 | 1002.0 |
| 20260507224529 | 52 | 251 | 5.0 | 14.0 | 0.00 | 0.00 | 0.00 | 57 | 1002.1 |
| 20260507224007 | 52 | 219 | 7.0 | 14.0 | 0.00 | 0.00 | 0.00 | 57 | 1002.1 |
| 20260507223507 | 52 | 234 | 5.0 | 12.0 | 0.00 | 0.00 | 0.00 | 57 | 1001.9 |
| 20260507223027 | 52 | 250 | 7.0 | 12.0 | 0.00 | 0.00 | 0.00 | 57 | 1001.9 |
| 20260507222509 | 52 | 254 | 8.0 | 12.0 | 0.00 | 0.00 | 0.00 | 57 | 1001.9 |
| 20260507222008 | 52 | 221 | 4.0 | 12.0 | 0.00 | 0.00 | 0.00 | 57 | 1001.9 |
| 20260507221527 | 52 | 228 | 5.0 | 14.0 | 0.00 | 0.00 | 0.00 | 57 | 1001.8 |
| 20260507221008 | 52 | 242 | 8.0 | 14.0 | 0.00 | 0.00 | 0.00 | 56 | 1001.8 |
| 20260507220510 | 52 | 235 | 8.0 | 13.0 | 0.00 | 0.00 | 0.00 | 55 | 1001.8 |
| 20260507220019 | 52 | 245 | 7.0 | 14.0 | 0.00 | 0.00 | 0.00 | 54 | 1001.8 |
| 20260507215508 | 52 | 231 | 8.0 | 14.0 | 0.00 | 0.00 | 0.00 | 54 | 1001.8 |
| 20260507215008 | 52 | 230 | 8.0 | 13.0 | 0.00 | 0.00 | 0.00 | 54 | 1001.8 |
| 20260507214519 | 52 | 264 | 5.0 | 13.0 | 0.00 | 0.00 | 0.00 | 55 | 1001.8 |
| 20260507214006 | 52 | 250 | 6.0 | 13.0 | 0.00 | 0.00 | 0.00 | 54 | 1001.9 |
| 20260507213508 | 52 | 259 | 5.0 | 15.0 | 0.00 | 0.00 | 0.00 | 54 | 1001.9 |
| 20260507213031 | 52 | 223 | 8.0 | 15.0 | 0.00 | 0.00 | 0.00 | 54 | 1001.8 |
| 20260507212508 | 52 | 233 | 5.0 | 11.0 | 0.00 | 0.00 | 0.00 | 54 | 1001.8 |
| 20260507212011 | 52 | 265 | 6.0 | 11.0 | 0.00 | 0.00 | 0.00 | 54 | 1001.9 |
| 20260507211537 | 52 | 250 | 6.0 | 11.0 | 0.00 | 0.00 | 0.00 | 54 | 1001.8 |
| 20260507211013 | 52 | 251 | 7.0 | 15.0 | 0.00 | 0.00 | 0.00 | 52 | 1001.8 |
| 20260507210508 | 53 | 259 | 6.0 | 15.0 | 0.00 | 0.00 | 0.00 | 52 | 1001.8 |
| 20260507210029 | 53 | 218 | 9.0 | 13.0 | 0.00 | 0.00 | 0.00 | 52 | 1001.8 |
| 20260507205510 | 53 | 222 | 5.0 | 13.0 | 0.00 | 0.00 | 0.00 | 54 | 1001.7 |
| 20260507205005 | 52 | 253 | 8.0 | 13.0 | 0.00 | 0.00 | 0.00 | 56 | 1001.7 |
| 20260507204520 | 52 | 270 | 7.0 | 11.0 | 0.00 | 0.00 | 0.00 | 58 | 1001.8 |
| 20260507204006 | 52 | 221 | 6.0 | 10.0 | 0.00 | 0.00 | 0.00 | 57 | 1001.8 |
| 20260507203511 | 52 | 255 | 5.0 | 10.0 | 0.00 | 0.00 | 0.00 | 57 | 1001.7 |
| 20260507203022 | 51 | 250 | 6.0 | 13.0 | 0.00 | 0.01 | 0.00 | 59 | 1001.7 |
| 20260507202510 | 51 | 273 | 7.0 | 13.0 | 0.00 | 0.01 | 0.00 | 59 | 1001.7 |
| 20260507202008 | 51 | 261 | 7.0 | 16.0 | 0.00 | 0.01 | 0.00 | 60 | 1001.7 |
| 20260507201536 | 51 | 236 | 6.0 | 17.0 | 0.00 | 0.01 | 0.00 | 62 | 1001.7 |
| 20260507201010 | 52 | 256 | 9.0 | 17.0 | 0.00 | 0.01 | 0.00 | 61 | 1001.7 |
| 20260507200511 | 51 | 252 | 8.0 | 15.0 | 0.00 | 0.01 | 0.00 | 64 | 1001.7 |
| 20260507200035 | 52 | 262 | 8.0 | 15.0 | 0.00 | 0.01 | 0.00 | 64 | 1001.8 |
| 20260507195508 | 52 | 250 | 6.0 | 16.0 | 0.00 | 0.01 | 0.00 | 65 | 1001.7 |
| 20260507195009 | 52 | 263 | 8.0 | 18.0 | 0.00 | 0.01 | 0.00 | 63 | 1001.7 |
| 20260507194530 | 52 | 221 | 9.0 | 18.0 | 0.00 | 0.01 | 0.00 | 60 | 1001.7 |
| 20260507194009 | 53 | 287 | 7.0 | 13.0 | 0.00 | 0.02 | 0.00 | 59 | 1001.6 |
| 20260507193506 | 54 | 277 | 6.0 | 13.0 | 0.00 | 0.02 | 0.00 | 58 | 1001.6 |
| 20260507193024 | 53 | 246 | 7.0 | 13.0 | 0.00 | 0.02 | 0.00 | 58 | 1001.5 |
| 20260507192506 | 53 | 265 | 7.0 | 12.0 | 0.00 | 0.03 | 0.00 | 60 | 1001.6 |
| 20260507192007 | 52 | 291 | 7.0 | 12.0 | 0.00 | 0.03 | 0.00 | 58 | 1001.6 |
| 20260507191526 | 53 | 263 | 8.0 | 13.0 | 0.00 | 0.03 | 0.00 | 57 | 1001.6 |
| 20260507191007 | 53 | 278 | 6.0 | 13.0 | 0.00 | 0.03 | 0.00 | 57 | 1001.7 |
| 20260507190507 | 53 | 283 | 8.0 | 13.0 | 0.00 | 0.03 | 0.00 | 54 | 1001.7 |
| 20260507190026 | 53 | 252 | 8.0 | 12.0 | 0.00 | 0.04 | 0.00 | 52 | 1001.8 |
| 20260507185508 | 54 | 272 | 7.0 | 13.0 | 0.00 | 0.04 | 0.00 | 51 | 1001.8 |
| 20260507185013 | 53 | 252 | 4.0 | 13.0 | 0.00 | 0.04 | 0.00 | 55 | 1001.8 |
| 20260507184533 | 53 | 299 | 7.0 | 12.0 | 0.00 | 0.05 | 0.00 | 55 | 1001.9 |
| 20260507184009 | 53 | 268 | 8.0 | 16.0 | 0.00 | 0.05 | 0.00 | 53 | 1002.0 |
| 20260507183512 | 53 | 289 | 9.0 | 17.0 | 0.00 | 0.06 | 0.00 | 53 | 1002.1 |
| 20260507183033 | 53 | 236 | 8.0 | 17.0 | 0.00 | 0.06 | 0.00 | 55 | 1002.1 |
| 20260507182506 | 53 | 286 | 8.0 | 17.0 | 0.00 | 0.06 | 0.00 | 56 | 1002.1 |
| 20260507182009 | 53 | 245 | 10.0 | 17.0 | 0.00 | 0.06 | 0.00 | 60 | 1002.1 |
| 20260507181529 | 52 | 248 | 8.0 | 18.0 | 0.00 | 0.06 | 0.00 | 61 | 1002.2 |
| 20260507181008 | 52 | 274 | 9.0 | 18.0 | 0.00 | 0.06 | 0.00 | 63 | 1002.2 |
| 20260507180510 | 52 | 259 | 9.0 | 16.0 | 0.00 | 0.06 | 0.00 | 64 | 1002.2 |
| 20260507180041 | 51 | 273 | 8.0 | 17.0 | 0.00 | 0.06 | 0.00 | 66 | 1002.2 |
| 20260507175507 | 51 | 235 | 10.0 | 17.0 | 0.00 | 0.06 | 0.00 | 67 | 1002.2 |
| 20260507175009 | 51 | 259 | 9.0 | 15.0 | 0.00 | 0.06 | 0.00 | 66 | 1002.2 |
| 20260507174526 | 51 | 292 | 9.0 | 14.0 | 0.00 | 0.06 | 0.00 | 65 | 1002.2 |
| 20260507174009 | 51 | 223 | 5.0 | 16.0 | 0.00 | 0.06 | 0.00 | 67 | 1002.3 |
| 20260507173509 | 51 | 243 | 7.0 | 16.0 | 0.00 | 0.06 | 0.00 | 66 | 1002.4 |
| 20260507173035 | 51 | 259 | 7.0 | 14.0 | 0.00 | 0.06 | 0.00 | 68 | 1002.4 |
| 20260507172510 | 50 | 240 | 9.0 | 14.0 | 0.00 | 0.06 | 0.00 | 68 | 1002.5 |
| 20260507172011 | 51 | 331 | 7.0 | 14.0 | 0.00 | 0.06 | 0.00 | 67 | 1002.6 |
| 20260507171523 | 51 | 276 | 9.0 | 15.0 | 0.00 | 0.06 | 0.00 | 69 | 1002.6 |
| 20260507171013 | 51 | 273 | 9.0 | 15.0 | 0.00 | 0.06 | 0.00 | 68 | 1002.6 |
| 20260507170508 | 51 | 281 | 8.0 | 14.0 | 0.00 | 0.06 | 0.00 | 66 | 1002.7 |
| 20260507170043 | 50 | 231 | 8.0 | 14.0 | 0.00 | 0.06 | 0.00 | 64 | 1002.8 |
| 20260507165510 | 50 | 250 | 8.0 | 13.0 | 0.00 | 0.06 | 0.00 | 64 | 1002.8 |
| 20260507165011 | 50 | 252 | 8.0 | 13.0 | 0.00 | 0.06 | 0.00 | 61 | 1002.9 |
| 20260507164530 | 50 | 252 | 8.0 | 12.0 | 0.00 | 0.06 | 0.00 | 62 | 1002.9 |
| 20260507164010 | 50 | 252 | 8.0 | 12.0 | 0.00 | 0.06 | 0.00 | 63 | 1002.9 |
| 20260507163510 | 51 | 252 | 4.0 | 13.0 | 0.00 | 0.06 | 0.00 | 64 | 1002.9 |
| 20260507163030 | 51 | 277 | 5.0 | 13.0 | 0.00 | 0.06 | 0.00 | 61 | 1003.0 |
| 20260507162510 | 51 | 249 | 7.0 | 11.0 | 0.00 | 0.06 | 0.00 | 63 | 1003.0 |
| 20260507162014 | 50 | 244 | 7.0 | 11.0 | 0.00 | 0.06 | 0.00 | 62 | 1003.1 |
| 20260507161530 | 50 | 265 | 7.0 | 13.0 | 0.00 | 0.06 | 0.00 | 64 | 1003.1 |
| 20260507161010 | 50 | 269 | 7.0 | 13.0 | 0.00 | 0.06 | 0.00 | 61 | 1003.2 |
| 20260507160507 | 49 | 255 | 4.0 | 12.0 | 0.00 | 0.06 | 0.00 | 68 | 1003.2 |
| 20260507160026 | 48 | 352 | 5.0 | 13.0 | 0.00 | 0.06 | 0.00 | 67 | 1003.2 |
| 20260507155506 | 48 | 284 | 8.0 | 13.0 | 0.00 | 0.06 | 0.00 | 67 | 1003.3 |
| 20260507155012 | 48 | 266 | 5.0 | 12.0 | 0.00 | 0.06 | 0.00 | 69 | 1003.5 |
| 20260507154527 | 48 | 253 | 5.0 | 12.0 | 0.00 | 0.06 | 0.00 | 70 | 1003.5 |
| 20260507154014 | 47 | 261 | 8.0 | 12.0 | 0.00 | 0.06 | 0.00 | 70 | 1003.5 |
| 20260507153509 | 48 | 279 | 7.0 | 12.0 | 0.00 | 0.06 | 0.00 | 72 | 1003.5 |
| 20260507153030 | 48 | 265 | 6.0 | 12.0 | 0.00 | 0.06 | 0.00 | 73 | 1003.5 |
| 20260507152512 | 48 | 263 | 5.0 | 14.0 | 0.00 | 0.06 | 0.00 | 74 | 1003.5 |
| 20260507152010 | 47 | 249 | 7.0 | 14.0 | 0.00 | 0.06 | 0.00 | 75 | 1003.5 |
| 20260507151533 | 47 | 273 | 7.0 | 15.0 | 0.00 | 0.06 | 0.00 | 76 | 1003.6 |
| 20260507151010 | 47 | 273 | 9.0 | 15.0 | 0.00 | 0.06 | 0.00 | 76 | 1003.6 |
| 20260507150504 | 47 | 252 | 9.0 | 13.0 | 0.00 | 0.06 | 0.00 | 77 | 1003.5 |
| 20260507150003 | 46 | 275 | 7.0 | 14.0 | 0.00 | 0.06 | 0.00 | 81 | 1003.6 |
| 20260507145502 | 45 | 345 | 6.0 | 14.0 | 0.00 | 0.06 | 0.00 | 82 | 1003.6 |
| 20260507145002 | 45 | 233 | 4.0 | 11.0 | 0.00 | 0.06 | 0.00 | 84 | 1003.6 |
| 20260507144506 | 45 | 282 | 5.0 | 13.0 | 0.00 | 0.06 | 0.00 | 85 | 1003.7 |
| 20260507144003 | 44 | 273 | 8.0 | 13.0 | 0.00 | 0.06 | 0.00 | 85 | 1003.7 |
| 20260507143503 | 44 | 242 | 7.0 | 12.0 | 0.00 | 0.06 | 0.00 | 86 | 1003.8 |
| 20260507143012 | 44 | 247 | 7.0 | 12.0 | 0.00 | 0.06 | 0.00 | 86 | 1003.8 |
| 20260507142506 | 44 | 278 | 6.0 | 12.0 | 0.00 | 0.06 | 0.00 | 85 | 1003.9 |
| 20260507142005 | 44 | 275 | 5.0 | 10.0 | 0.00 | 0.06 | 0.00 | 85 | 1003.9 |
| 20260507141516 | 44 | 264 | 3.0 | 9.0 | 0.00 | 0.06 | 0.00 | 85 | 1004.0 |
| 20260507141007 | 44 | 279 | 4.0 | 10.0 | 0.00 | 0.06 | 0.00 | 85 | 1004.0 |
| 20260507140507 | 44 | 259 | 5.0 | 11.0 | 0.00 | 0.06 | 0.00 | 85 | 1003.9 |
| 20260507140019 | 44 | 262 | 6.0 | 11.0 | 0.00 | 0.06 | 0.00 | 85 | 1003.9 |
| 20260507135510 | 44 | 324 | 3.0 | 9.0 | 0.00 | 0.06 | 0.00 | 88 | 1003.9 |
| 20260507135003 | 43 | 242 | 4.0 | 8.0 | 0.00 | 0.06 | 0.00 | 87 | 1003.9 |
| 20260507134503 | 44 | 281 | 3.0 | 7.0 | 0.00 | 0.06 | 0.00 | 89 | 1003.9 |
| 20260507134003 | 43 | 327 | 2.0 | 6.0 | 0.00 | 0.06 | 0.00 | 92 | 1003.8 |
| 20260507133503 | 42 | 250 | 3.0 | 6.0 | 0.00 | 0.06 | 0.00 | 91 | 1004.0 |
| 20260507133011 | 41 | 269 | 2.0 | 6.0 | 0.00 | 0.06 | 0.00 | 91 | 1004.0 |
| 20260507132503 | 41 | 272 | 2.0 | 5.0 | 0.00 | 0.06 | 0.00 | 92 | 1003.9 |
| 20260507132006 | 41 | 243 | 2.0 | 8.0 | 0.00 | 0.06 | 0.00 | 92 | 1004.1 |
| 20260507131514 | 40 | 317 | 3.0 | 8.0 | 0.00 | 0.06 | 0.00 | 91 | 1004.2 |
| 20260507131006 | 40 | 298 | 3.0 | 8.0 | 0.00 | 0.06 | 0.00 | 92 | 1004.2 |
| 20260507130508 | 40 | 253 | 3.0 | 9.0 | 0.00 | 0.06 | 0.00 | 92 | 1004.2 |
| 20260507130018 | 40 | 238 | 5.0 | 9.0 | 0.00 | 0.06 | 0.00 | 92 | 1004.2 |
| 20260507125508 | 40 | 238 | 3.0 | 7.0 | 0.00 | 0.06 | 0.00 | 93 | 1004.2 |
| 20260507125007 | 40 | 249 | 3.0 | 7.0 | 0.00 | 0.06 | 0.00 | 93 | 1004.2 |
| 20260507124524 | 40 | 264 | 3.0 | 10.0 | 0.00 | 0.06 | 0.00 | 93 | 1004.2 |
| 20260507124003 | 39 | 234 | 3.0 | 10.0 | 0.00 | 0.06 | 0.00 | 93 | 1004.1 |
| 20260507123503 | 39 | 261 | 6.0 | 9.0 | 0.00 | 0.06 | 0.00 | 92 | 1004.0 |
| 20260507123008 | 39 | 257 | 5.0 | 9.0 | 0.00 | 0.06 | 0.00 | 93 | 1004.0 |
| 20260507122504 | 39 | 234 | 5.0 | 8.0 | 0.00 | 0.06 | 0.00 | 93 | 1004.1 |
| 20260507122003 | 39 | 235 | 2.0 | 10.0 | 0.00 | 0.06 | 0.00 | 93 | 1004.0 |
| 20260507121513 | 39 | 275 | 3.0 | 10.0 | 0.00 | 0.06 | 0.00 | 93 | 1004.1 |
| 20260507121007 | 39 | 237 | 5.0 | 8.0 | 0.00 | 0.06 | 0.00 | 93 | 1004.1 |
| 20260507120503 | 39 | 229 | 4.0 | 9.0 | 0.00 | 0.06 | 0.00 | 93 | 1004.0 |
| 20260507120018 | 39 | 268 | 3.0 | 11.0 | 0.00 | 0.06 | 0.00 | 93 | 1004.1 |
| 20260507115506 | 39 | 268 | 3.0 | 11.0 | 0.00 | 0.06 | 0.00 | 93 | 1004.2 |
| 20260507115008 | 39 | 257 | 5.0 | 11.0 | 0.00 | 0.06 | 0.00 | 93 | 1004.2 |
| 20260507114520 | 39 | 268 | 4.0 | 10.0 | 0.00 | 0.06 | 0.00 | 93 | 1004.0 |
| 20260507114007 | 39 | 253 | 6.0 | 10.0 | 0.00 | 0.06 | 0.00 | 93 | 1004.2 |
| 20260507113508 | 40 | 236 | 4.0 | 8.0 | 0.00 | 0.06 | 0.00 | 93 | 1004.2 |
| 20260507113027 | 39 | 257 | 3.0 | 8.0 | 0.00 | 0.06 | 0.00 | 93 | 1004.2 |
| 20260507112504 | 40 | 238 | 3.0 | 8.0 | 0.00 | 0.06 | 0.00 | 93 | 1004.2 |
| 20260507112004 | 40 | 276 | 2.0 | 10.0 | 0.00 | 0.06 | 0.00 | 92 | 1004.1 |
| 20260507111516 | 40 | 260 | 4.0 | 11.0 | 0.00 | 0.06 | 0.00 | 92 | 1003.9 |
| 20260507111006 | 40 | 267 | 6.0 | 11.0 | 0.00 | 0.06 | 0.00 | 92 | 1003.8 |
| 20260507110502 | 40 | 263 | 5.0 | 11.0 | 0.00 | 0.06 | 0.00 | 91 | 1003.8 |
| 20260507110016 | 41 | 252 | 4.0 | 11.0 | 0.00 | 0.06 | 0.00 | 90 | 1003.9 |
| 20260507105504 | 42 | 245 | 6.0 | 10.0 | 0.00 | 0.06 | 0.00 | 91 | 1003.9 |
| 20260507105009 | 43 | 239 | 3.0 | 6.0 | 0.00 | 0.06 | 0.00 | 92 | 1003.7 |
| 20260507104520 | 42 | 240 | 2.0 | 4.0 | 0.00 | 0.06 | 0.00 | 92 | 1003.6 |
| 20260507104006 | 42 | 243 | 2.0 | 3.0 | 0.00 | 0.06 | 0.00 | 92 | 1003.6 |
| 20260507103506 | 42 | 213 | 1.0 | 3.0 | 0.00 | 0.06 | 0.00 | 92 | 1003.6 |
| 20260507103022 | 42 | 221 | 1.0 | 3.0 | 0.00 | 0.06 | 0.00 | 92 | 1003.5 |
| 20260507102506 | 42 | 247 | 1.0 | 3.0 | 0.00 | 0.06 | 0.00 | 92 | 1003.5 |
| 20260507102015 | 42 | 234 | 2.0 | 5.0 | 0.00 | 0.06 | 0.00 | 92 | 1003.6 |
| 20260507101509 | 42 | 227 | 2.0 | 5.0 | 0.00 | 0.06 | 0.00 | 92 | 1003.6 |
| 20260507101002 | 42 | 249 | 3.0 | 4.0 | 0.00 | 0.06 | 0.00 | 92 | 1003.5 |
| 20260507100505 | 42 | 239 | 1.0 | 2.0 | 0.00 | 0.06 | 0.00 | 92 | 1003.7 |
| 20260507100015 | 41 | 192 | 0.0 | 2.0 | 0.00 | 0.06 | 0.00 | 92 | 1003.8 |
| 20260507095508 | 41 | 192 | 1.0 | 2.0 | 0.00 | 0.06 | 0.00 | 92 | 1003.8 |
| 20260507095006 | 41 | 227 | 0.0 | 3.0 | 0.00 | 0.06 | 0.00 | 92 | 1003.7 |
| 20260507094518 | 41 | 247 | 2.0 | 6.0 | 0.00 | 0.06 | 0.00 | 92 | 1003.8 |
| 20260507094007 | 41 | 248 | 1.0 | 7.0 | 0.00 | 0.06 | 0.00 | 91 | 1003.9 |
| 20260507093515 | 42 | 263 | 3.0 | 7.0 | 0.00 | 0.06 | 0.00 | 91 | 1003.9 |
| 20260507093021 | 42 | 248 | 2.0 | 3.0 | 0.00 | 0.06 | 0.00 | 91 | 1003.9 |
| 20260507092507 | 42 | 282 | 2.0 | 6.0 | 0.00 | 0.06 | 0.00 | 91 | 1003.9 |
| 20260507092011 | 42 | 280 | 1.0 | 6.0 | 0.00 | 0.06 | 0.00 | 90 | 1003.8 |
| 20260507091535 | 42 | 265 | 2.0 | 5.0 | 0.00 | 0.06 | 0.00 | 90 | 1004.0 |
| 20260507091008 | 43 | 250 | 0.0 | 4.0 | 0.00 | 0.06 | 0.00 | 90 | 1003.9 |
| 20260507090507 | 43 | 250 | 1.0 | 4.0 | 0.00 | 0.06 | 0.00 | 90 | 1004.0 |
| 20260507090012 | 43 | 267 | 2.0 | 3.0 | 0.00 | 0.06 | 0.00 | 90 | 1004.0 |
| 20260507085503 | 43 | 263 | 1.0 | 2.0 | 0.00 | 0.06 | 0.00 | 90 | 1003.9 |
| 20260507085005 | 43 | 229 | 1.0 | 3.0 | 0.00 | 0.06 | 0.00 | 90 | 1003.9 |
| 20260507084534 | 43 | 254 | 2.0 | 3.0 | 0.00 | 0.06 | 0.00 | 89 | 1004.1 |
| 20260507084006 | 43 | 240 | 1.0 | 3.0 | 0.00 | 0.06 | 0.00 | 89 | 1004.1 |
| 20260507083511 | 43 | 311 | 0.0 | 2.0 | 0.00 | 0.06 | 0.00 | 89 | 1004.0 |
| 20260507083022 | 43 | 12 | 0.0 | 2.0 | 0.00 | 0.06 | 0.00 | 88 | 1004.0 |
| 20260507082508 | 43 | 46 | 0.0 | 2.0 | 0.00 | 0.06 | 0.00 | 88 | 1003.9 |
| 20260507082011 | 43 | 46 | 0.0 | 2.0 | 0.00 | 0.06 | 0.00 | 88 | 1003.8 |
| 20260507081528 | 43 | 46 | 0.0 | 2.0 | 0.00 | 0.06 | 0.00 | 88 | 1003.8 |
| 20260507081007 | 43 | 46 | 0.0 | 2.0 | 0.00 | 0.06 | 0.00 | 88 | 1003.7 |
| 20260507080511 | 43 | 46 | 0.0 | 2.0 | 0.00 | 0.06 | 0.00 | 88 | 1003.8 |
| 20260507080030 | 43 | 42 | 0.0 | 2.0 | 0.00 | 0.06 | 0.00 | 89 | 1003.8 |
| 20260507075508 | 43 | 71 | 1.0 | 2.0 | 0.00 | 0.06 | 0.00 | 88 | 1003.8 |
| 20260507075010 | 43 | 64 | 1.0 | 2.0 | 0.00 | 0.06 | 0.00 | 89 | 1003.9 |
| 20260507074512 | 43 | 64 | 0.0 | 2.0 | 0.00 | 0.06 | 0.00 | 88 | 1003.9 |
| 20260507074005 | 43 | 78 | 1.0 | 2.0 | 0.00 | 0.06 | 0.00 | 89 | 1004.0 |
| 20260507073503 | 43 | 78 | 0.0 | 2.0 | 0.00 | 0.06 | 0.00 | 89 | 1004.1 |
| 20260507073022 | 43 | 57 | 1.0 | 2.0 | 0.00 | 0.06 | 0.00 | 89 | 1004.1 |
| 20260507072507 | 43 | 42 | 1.0 | 2.0 | 0.00 | 0.06 | 0.00 | 89 | 1004.2 |
| 20260507072006 | 43 | 42 | 0.0 | 2.0 | 0.00 | 0.06 | 0.00 | 89 | 1004.2 |
| 20260507071525 | 43 | 42 | 0.0 | 1.0 | 0.00 | 0.06 | 0.00 | 89 | 1004.3 |
| 20260507071009 | 43 | 42 | 0.0 | 1.0 | 0.00 | 0.06 | 0.00 | 89 | 1004.3 |
| 20260507070510 | 43 | 42 | 0.0 | 0.0 | 0.00 | 0.06 | 0.00 | 89 | 1004.5 |
| 20260507070029 | 43 | 42 | 0.0 | 2.0 | 0.00 | 0.06 | 0.00 | 89 | 1004.5 |
| 20260507065507 | 43 | 42 | 0.0 | 2.0 | 0.00 | 0.06 | 0.00 | 89 | 1004.6 |
| 20260507065011 | 43 | 42 | 0.0 | 2.0 | 0.00 | 0.06 | 0.00 | 89 | 1004.5 |
| 20260507064531 | 43 | 38 | 0.0 | 2.0 | 0.00 | 0.06 | 0.00 | 89 | 1004.5 |
| 20260507064010 | 43 | 38 | 0.0 | 2.0 | 0.00 | 0.06 | 0.00 | 89 | 1004.5 |
| 20260507063503 | 43 | 57 | 0.0 | 2.0 | 0.00 | 0.06 | 0.00 | 89 | 1004.4 |
| 20260507063016 | 43 | 64 | 1.0 | 4.0 | 0.00 | 0.06 | 0.00 | 89 | 1004.2 |
| 20260507062507 | 43 | 52 | 2.0 | 4.0 | 0.00 | 0.06 | 0.00 | 89 | 1004.3 |
| 20260507062006 | 43 | 58 | 1.0 | 3.0 | 0.00 | 0.06 | 0.00 | 89 | 1004.4 |
| 20260507061520 | 43 | 85 | 2.0 | 4.0 | 0.00 | 0.06 | 0.00 | 89 | 1004.3 |
| 20260507061006 | 43 | 90 | 2.0 | 4.0 | 0.00 | 0.06 | 0.00 | 89 | 1004.4 |
| 20260507060506 | 43 | 72 | 2.0 | 4.0 | 0.00 | 0.06 | 0.00 | 89 | 1004.5 |